DLH205 KLAX-MMMX

Flight info

Callsign DLH205
Flight time N/A
Altitude 39000
Route PNDAH2 TCATE DCT PPE UT10 ZCL UJ5 QET UT150 DARAN DARAN3A
Aircraft A388/J-SADE2E3FGHIJ3J4J5M1RWXY/LB1D1

Departure

Time 2026-05-06 00:47
Airport Los Angeles International Airport (KLAX)

Arrival

Time N/A
Airport Mexico City Benito Juárez International Airport (MMMX)
Time Latitude Longitude Altitude Speed Heading
2026-05-06 00:22 33.94258 -118.41114 141 ft 0 kts 83°
2026-05-06 00:36 33.94258 -118.41118 141 ft 2 kts 83°
2026-05-06 00:36 33.94256 -118.41136 141 ft 2 kts 82°
2026-05-06 00:36 33.94255 -118.41148 141 ft 2 kts 82°
2026-05-06 00:36 33.94252 -118.41165 141 ft 2 kts 68°
2026-05-06 00:37 33.94245 -118.41182 141 ft 2 kts 50°
2026-05-06 00:37 33.94235 -118.41195 141 ft 2 kts 36°
2026-05-06 00:37 33.94222 -118.41205 141 ft 2 kts 21°
2026-05-06 00:37 33.94207 -118.41210 141 ft 2 kts
2026-05-06 00:38 33.94195 -118.41211 141 ft 1 kts 354°
2026-05-06 00:38 33.94189 -118.41211 141 ft 1 kts 353°
2026-05-06 00:38 33.94188 -118.41211 141 ft 0 kts 353°
2026-05-06 00:41 33.94190 -118.41211 141 ft 2 kts 353°
2026-05-06 00:41 33.94217 -118.41215 141 ft 6 kts 353°
2026-05-06 00:41 33.94272 -118.41224 141 ft 10 kts 353°
2026-05-06 00:41 33.94353 -118.41236 141 ft 13 kts 353°
2026-05-06 00:42 33.94451 -118.41250 141 ft 16 kts 353°
2026-05-06 00:42 33.94563 -118.41266 141 ft 16 kts 353°
2026-05-06 00:42 33.94678 -118.41283 141 ft 17 kts 353°
2026-05-06 00:42 33.94778 -118.41268 141 ft 14 kts 43°
2026-05-06 00:43 33.94808 -118.41156 141 ft 14 kts 83°
2026-05-06 00:43 33.94820 -118.41035 141 ft 15 kts 83°
2026-05-06 00:43 33.94833 -118.40909 141 ft 15 kts 83°
2026-05-06 00:43 33.94845 -118.40778 141 ft 16 kts 83°
2026-05-06 00:44 33.94859 -118.40643 141 ft 17 kts 83°
2026-05-06 00:44 33.94872 -118.40503 141 ft 17 kts 84°
2026-05-06 00:44 33.94886 -118.40362 141 ft 17 kts 83°
2026-05-06 00:44 33.94900 -118.40230 141 ft 15 kts 83°
2026-05-06 00:45 33.94909 -118.40135 141 ft 8 kts 83°
2026-05-06 00:45 33.94914 -118.40091 141 ft 3 kts 83°
2026-05-06 00:45 33.94916 -118.40068 141 ft 5 kts 83°
2026-05-06 00:45 33.94931 -118.39979 141 ft 12 kts 72°
2026-05-06 00:46 33.94986 -118.39916 141 ft 11 kts 11°
2026-05-06 00:46 33.95028 -118.39935 141 ft 9 kts 312°
2026-05-06 00:46 33.95035 -118.40005 141 ft 9 kts 264°
2026-05-06 00:46 33.95024 -118.40122 141 ft 35 kts 263°
2026-05-06 00:47 33.94967 -118.40686 141 ft 101 kts 263°
2026-05-06 00:47 33.94855 -118.41791 142 ft 165 kts 262°
2026-05-06 00:47 33.94687 -118.43307 592 ft 195 kts 261°
2026-05-06 00:47 33.94511 -118.44989 1313 ft 215 kts 262°
2026-05-06 00:48 33.94399 -118.46796 1980 ft 220 kts 266°
2026-05-06 00:48 33.94313 -118.48638 2558 ft 222 kts 266°
2026-05-06 00:48 33.94239 -118.50484 3051 ft 222 kts 265°
2026-05-06 00:48 33.94108 -118.52333 3563 ft 224 kts 264°
2026-05-06 00:49 33.93963 -118.54190 4279 ft 229 kts 264°
2026-05-06 00:49 33.93812 -118.56142 5197 ft 246 kts 265°
2026-05-06 00:49 33.93647 -118.58242 6123 ft 264 kts 265°
2026-05-06 00:49 33.93439 -118.60445 6943 ft 272 kts 257°
2026-05-06 00:50 33.92536 -118.62434 7693 ft 279 kts 224°
2026-05-06 00:50 33.90886 -118.63668 8468 ft 287 kts 204°
2026-05-06 00:50 33.88927 -118.64133 9097 ft 295 kts 180°
2026-05-06 00:50 33.86872 -118.63934 9774 ft 309 kts 176°
2026-05-06 00:51 33.84674 -118.63546 10432 ft 337 kts 166°
2026-05-06 00:51 33.82396 -118.62491 10999 ft 371 kts 150°
2026-05-06 00:51 33.80180 -118.60661 11591 ft 405 kts 144°
2026-05-06 00:51 33.77821 -118.58699 12350 ft 417 kts 147°
2026-05-06 00:52 33.75427 -118.56727 13094 ft 422 kts 141°
2026-05-06 00:52 33.73511 -118.54085 13821 ft 425 kts 123°
2026-05-06 00:52 33.71938 -118.51083 14581 ft 430 kts 119°
2026-05-06 00:52 33.70553 -118.47907 15203 ft 434 kts 116°
2026-05-06 00:53 33.69159 -118.44701 15830 ft 437 kts 117°
2026-05-06 00:53 33.67746 -118.41480 16455 ft 440 kts 117°
2026-05-06 00:53 33.66313 -118.38207 17085 ft 444 kts 117°
2026-05-06 00:53 33.64854 -118.34955 17703 ft 447 kts 120°
2026-05-06 00:54 33.63136 -118.31855 18328 ft 451 kts 123°
2026-05-06 00:54 33.61419 -118.28713 18958 ft 454 kts 122°
2026-05-06 00:54 33.59699 -118.25554 19583 ft 457 kts 123°
2026-05-06 00:54 33.57959 -118.22372 20193 ft 461 kts 122°
2026-05-06 00:55 33.56202 -118.19156 20693 ft 465 kts 123°
2026-05-06 00:55 33.54420 -118.15900 21199 ft 467 kts 122°
2026-05-06 00:55 33.52641 -118.12649 21699 ft 470 kts 123°
2026-05-06 00:55 33.50851 -118.09383 22200 ft 473 kts 123°
2026-05-06 00:56 33.49046 -118.06091 22701 ft 476 kts 123°
2026-05-06 00:56 33.47231 -118.02785 23202 ft 480 kts 123°
2026-05-06 00:56 33.45403 -117.99458 23703 ft 483 kts 123°
2026-05-06 00:56 33.43563 -117.96106 24206 ft 485 kts 123°
2026-05-06 00:57 33.41692 -117.92711 24709 ft 490 kts 123°
2026-05-06 00:57 33.39814 -117.89304 25212 ft 495 kts 123°
2026-05-06 00:57 33.37921 -117.85871 25714 ft 500 kts 123°
2026-05-06 00:57 33.36008 -117.82405 26186 ft 505 kts 123°
2026-05-06 00:58 33.34074 -117.78905 26639 ft 509 kts 124°
2026-05-06 00:58 33.32120 -117.75372 27093 ft 514 kts 124°
2026-05-06 00:58 33.30151 -117.71815 27547 ft 518 kts 124°
2026-05-06 00:58 33.28150 -117.68205 28004 ft 522 kts 124°
2026-05-06 00:59 33.26143 -117.64585 28460 ft 527 kts 124°
2026-05-06 00:59 33.24115 -117.60934 28859 ft 537 kts 124°
2026-05-06 00:59 33.22031 -117.57187 29152 ft 549 kts 125°
2026-05-06 00:59 33.19906 -117.53366 29455 ft 559 kts 125°
2026-05-06 01:00 33.17758 -117.49508 29738 ft 561 kts 125°
2026-05-06 01:00 33.15602 -117.45641 30016 ft 562 kts 125°
2026-05-06 01:00 33.13427 -117.41745 30297 ft 562 kts 126°
2026-05-06 01:00 33.11266 -117.37875 30575 ft 562 kts 126°
2026-05-06 01:01 33.09107 -117.34016 30852 ft 562 kts 126°
2026-05-06 01:01 33.06946 -117.30156 31117 ft 562 kts 127°
2026-05-06 01:01 33.04785 -117.26301 31382 ft 562 kts 127°
2026-05-06 01:01 33.02620 -117.22442 31648 ft 562 kts 127°
2026-05-06 01:02 33.00455 -117.18587 31915 ft 562 kts 127°
2026-05-06 01:02 32.98273 -117.14707 32175 ft 562 kts 127°
2026-05-06 01:02 32.96102 -117.10849 32420 ft 564 kts 127°
2026-05-06 01:02 32.93927 -117.06990 32666 ft 564 kts 127°
2026-05-06 01:03 32.91749 -117.03125 32908 ft 565 kts 128°
2026-05-06 01:03 32.89573 -116.99271 33152 ft 564 kts 128°
2026-05-06 01:03 32.87396 -116.95419 33400 ft 564 kts 128°
2026-05-06 01:03 32.85217 -116.91568 33648 ft 563 kts 128°
2026-05-06 01:04 32.83025 -116.87697 33898 ft 563 kts 128°
2026-05-06 01:04 32.80847 -116.83855 34149 ft 563 kts 128°
2026-05-06 01:04 32.78672 -116.80023 34398 ft 563 kts 129°
2026-05-06 01:04 32.76489 -116.76182 34657 ft 564 kts 129°
2026-05-06 01:05 32.74307 -116.72344 34910 ft 563 kts 129°
2026-05-06 01:05 32.72126 -116.68512 35163 ft 563 kts 129°
2026-05-06 01:05 32.69947 -116.64688 35417 ft 561 kts 129°
2026-05-06 01:05 32.67755 -116.60844 35673 ft 561 kts 129°
2026-05-06 01:06 32.65581 -116.57037 35929 ft 560 kts 129°
2026-05-06 01:06 32.63410 -116.53239 36183 ft 559 kts 129°
2026-05-06 01:06 32.61241 -116.49448 36440 ft 558 kts 130°
2026-05-06 01:06 32.59071 -116.45660 36697 ft 558 kts 130°
2026-05-06 01:07 32.56901 -116.41876 36955 ft 558 kts 130°
2026-05-06 01:07 32.54727 -116.38089 37178 ft 559 kts 130°
2026-05-06 01:07 32.52538 -116.34278 37388 ft 558 kts 130°
2026-05-06 01:07 32.50366 -116.30500 37573 ft 558 kts 130°
2026-05-06 01:08 32.48196 -116.26728 37762 ft 557 kts 131°
2026-05-06 01:08 32.46027 -116.22961 37949 ft 557 kts 131°
2026-05-06 01:08 32.43855 -116.19194 38137 ft 557 kts 131°
2026-05-06 01:08 32.41680 -116.15425 38329 ft 557 kts 131°
2026-05-06 01:09 32.39506 -116.11662 38518 ft 557 kts 131°
2026-05-06 01:09 32.37316 -116.07873 38712 ft 557 kts 131°